Date String (YYYY-MM-DD hh:mm:ss) UTC,Instrument flags,absolute air pressure of the measurement (hPa),sample flow rate (lpm),inlet stack bypass flow (lpm),air temperature of the measurement (°C),ambient temperature measured by the external sensor (°C),aerosol sample conditioner tube jacket temperature (°C),OPC LED temperature (°C),internal box temperature (°C),relative humidity of the measurement (%),span deviation,mass concentration of particles derived from Lorenz-Mie calculation of OPC scattering (μg/m³),mass concentration of particles derived from Lorenz-Mie calculation of OPC scattering (μg/m³),mass concentration of particles derived from Lorenz-Mie calculation of OPC scattering (μg/m³)
DateTimeUTC,F1_M11,P_M11,Q1_M11,Q2_M11,T1_M11,T2_M11,T3_M11,T4_M11,T5_M11,U1_M11,ZSPAN_M11,X0_M11,X2_M11,X1_M11
2023-06-04 07:00:00,SystemResetWarning,0833.6,5.00,000.00,030.4,028.8,000.0,038.8,032.0,29.0,0000.0,0006.27,0004.00,0003.68
2023-06-04 07:01:00,SystemResetWarning,0833.7,4.99,000.00,030.4,028.8,000.0,038.8,032.0,28.9,0000.0,0006.30,0003.98,0003.66
2023-06-04 07:02:00,SystemResetWarning,0833.7,5.00,000.00,030.4,028.8,000.0,038.8,032.0,28.9,0000.0,0006.22,0003.94,0003.63
2023-06-04 07:03:00,SystemResetWarning,0833.6,5.00,000.00,030.4,028.8,000.0,038.8,032.0,29.0,0000.0,0006.30,0003.94,0003.60
2023-06-04 07:04:00,SystemResetWarning,0833.6,5.00,000.00,030.4,028.8,000.0,038.8,032.0,28.8,0000.0,0006.06,0003.90,0003.55
2023-06-04 07:05:00,SystemResetWarning,0833.6,5.00,000.00,030.4,028.8,000.0,038.8,032.0,28.7,0000.0,0005.96,0003.81,0003.50
2023-06-04 07:06:00,SystemResetWarning,0833.6,5.00,000.00,030.4,028.8,000.0,038.8,031.9,28.3,0000.0,0006.85,0003.74,0003.43
2023-06-04 07:07:00,SystemResetWarning,0833.6,4.99,000.00,030.4,028.8,000.0,038.8,031.9,28.0,0000.0,0006.69,0003.66,0003.36
2023-06-04 07:08:00,SystemResetWarning,0833.6,5.01,000.00,030.3,028.7,000.0,038.8,031.9,27.8,0000.0,0006.49,0003.58,0003.29
2023-06-04 07:09:00,SystemResetWarning,0833.5,5.00,000.00,030.3,028.7,000.0,038.8,031.9,27.7,0000.0,0006.44,0003.50,0003.21
2023-06-04 07:10:00,SystemResetWarning,0833.5,5.01,000.00,030.3,028.7,000.0,038.8,031.9,27.5,0000.0,0006.33,0003.41,0003.12
2023-06-04 07:11:00,SystemResetWarning,0833.5,5.00,000.00,030.3,028.7,000.0,038.8,031.9,27.2,0000.0,0006.10,0003.30,0002.96
2023-06-04 07:12:00,SystemResetWarning,0833.5,5.00,000.00,030.3,028.7,000.0,038.8,031.9,27.1,0000.0,0005.86,0003.20,0002.80
2023-06-04 07:13:00,SystemResetWarning,0833.5,4.98,000.00,030.3,028.7,000.0,038.8,031.9,27.3,0000.0,0005.69,0003.13,0002.65
2023-06-04 07:14:00,SystemResetWarning,0833.5,5.00,000.00,030.3,028.7,000.0,038.8,031.9,27.4,0000.0,0005.56,0002.99,0002.51
2023-06-04 07:15:00,SystemResetWarning,0833.5,5.01,000.00,030.3,028.8,000.0,038.8,032.0,27.1,0000.0,0005.39,0002.85,0002.39
2023-06-04 07:16:00,SystemResetWarning,0833.5,5.01,000.00,030.3,028.8,000.0,038.8,032.0,27.0,0000.0,0005.06,0002.73,0002.28
2023-06-04 07:17:00,SystemResetWarning,0833.5,5.00,000.00,030.3,028.8,000.0,038.8,031.9,26.9,0000.0,0004.02,0002.63,0002.20
2023-06-04 07:18:00,SystemResetWarning,0833.5,5.01,000.00,030.4,028.8,000.0,038.8,031.9,27.1,0000.0,0003.91,0002.55,0002.15
2023-06-04 07:19:00,SystemResetWarning,0833.4,5.01,000.00,030.3,028.8,000.0,038.8,031.9,26.9,0000.0,0003.82,0002.50,0002.10
2023-06-04 07:20:00,SystemResetWarning,0833.5,4.99,000.00,030.4,028.8,000.0,038.8,031.9,26.7,0000.0,0003.50,0002.39,0002.04
2023-06-04 07:21:00,SystemResetWarning,0833.4,5.00,000.00,030.4,028.8,000.0,038.8,031.9,26.5,0000.0,0003.37,0002.36,0002.01
2023-06-04 07:22:00,SystemResetWarning,0833.4,4.99,000.00,030.4,028.8,000.0,038.8,032.0,26.3,0000.0,0003.47,0002.40,0002.01
2023-06-04 07:23:00,SystemResetWarning,0833.4,4.99,000.00,030.4,028.8,000.0,038.8,032.0,26.2,0000.0,0003.60,0002.45,0002.00
2023-06-04 07:24:00,SystemResetWarning,0833.4,5.00,000.00,030.4,028.8,000.0,038.8,032.0,26.3,0000.0,0003.63,0002.44,0001.99
2023-06-04 07:25:00,SystemResetWarning,0833.4,5.01,000.00,030.4,028.8,000.0,038.8,032.0,26.4,0000.0,0003.49,0002.40,0001.97
2023-06-04 07:26:00,SystemResetWarning,0833.4,5.01,000.00,030.4,028.8,000.0,038.8,032.0,26.3,0000.0,0003.52,0002.41,0001.96
2023-06-04 07:27:00,SystemResetWarning,0833.4,5.00,000.00,030.4,028.8,000.0,038.8,032.0,26.2,0000.0,0003.50,0002.41,0001.96
2023-06-04 07:28:00,SystemResetWarning,0833.4,5.00,000.00,030.4,028.8,000.0,038.8,032.0,26.3,0000.0,0003.47,0002.43,0001.94
2023-06-04 07:29:00,SystemResetWarning,0833.4,4.99,000.00,030.4,028.8,000.0,038.8,032.0,26.3,0000.0,0003.54,0002.46,0001.95
2023-06-04 07:30:00,SystemResetWarning,0833.3,5.00,000.00,030.4,028.8,000.0,038.8,032.0,26.2,0000.0,0003.58,0002.49,0001.95
2023-06-04 07:31:00,SystemResetWarning,0833.3,5.01,000.00,030.4,028.8,000.0,038.8,032.0,26.0,0000.0,0003.60,0002.50,0001.95
2023-06-04 07:32:00,SystemResetWarning,0833.3,5.00,000.00,030.4,028.8,000.0,038.8,032.0,26.1,0000.0,0003.86,0002.52,0001.96
2023-06-04 07:33:00,SystemResetWarning,0833.3,5.01,000.00,030.4,028.8,000.0,038.8,032.0,26.4,0000.0,0003.96,0002.53,0001.96
2023-06-04 07:34:00,SystemResetWarning,0833.3,5.00,000.00,030.4,028.8,000.0,038.8,032.0,26.6,0000.0,0003.98,0002.50,0001.97
2023-06-04 07:35:00,SystemResetWarning,0833.3,4.99,000.00,030.4,028.8,000.0,038.8,032.0,26.6,0000.0,0003.89,0002.51,0002.00
2023-06-04 07:36:00,SystemResetWarning,0833.4,5.00,000.00,030.4,028.8,000.0,038.8,032.0,26.6,0000.0,0003.81,0002.49,0002.00
2023-06-04 07:37:00,SystemResetWarning,0833.4,5.00,000.00,030.4,028.8,000.0,038.8,032.0,26.6,0000.0,0003.86,0002.50,0002.00
2023-06-04 07:38:00,SystemResetWarning,0833.4,5.00,000.00,030.4,028.8,000.0,038.8,032.0,26.6,0000.0,0003.88,0002.53,0002.01
2023-06-04 07:39:00,SystemResetWarning,0833.4,5.00,000.00,030.4,028.8,000.0,038.8,032.0,26.7,0000.0,0003.89,0002.53,0002.03
2023-06-04 07:40:00,SystemResetWarning,0833.4,4.99,000.00,030.4,028.8,000.0,038.8,032.0,26.5,0000.0,0003.72,0002.47,0002.04
2023-06-04 07:41:00,SystemResetWarning,0833.4,5.01,000.00,030.4,028.8,000.0,038.8,032.0,26.3,0000.0,0003.63,0002.42,0002.03
2023-06-04 07:42:00,SystemResetWarning,0833.4,5.00,000.00,030.4,028.8,000.0,038.8,032.0,26.2,0000.0,0003.77,0002.49,0002.03
2023-06-04 07:43:00,SystemResetWarning,0833.4,5.01,000.00,030.4,028.8,000.0,038.8,032.0,26.0,0000.0,0003.69,0002.50,0002.04
2023-06-04 07:44:00,SystemResetWarning,0833.4,5.00,000.00,030.4,028.8,000.0,038.8,032.0,25.9,0000.0,0003.59,0002.50,0002.05
2023-06-04 07:45:00,SystemResetWarning,0833.3,5.00,000.00,030.4,028.8,000.0,038.8,032.0,26.0,0000.0,0003.29,0002.42,0002.02
2023-06-04 07:46:00,SystemResetWarning,0833.4,5.00,000.00,030.4,028.8,000.0,038.8,032.0,26.0,0000.0,0003.32,0002.40,0002.00
2023-06-04 07:47:00,SystemResetWarning,0833.3,4.99,000.00,030.4,028.8,000.0,038.8,032.0,26.0,0000.0,0003.45,0002.43,0001.99
2023-06-04 07:48:00,SystemResetWarning,0833.3,5.00,000.00,030.4,028.8,000.0,038.8,032.0,26.1,0000.0,0003.44,0002.44,0002.00
2023-06-04 07:49:00,SystemResetWarning,0833.3,4.99,000.00,030.4,028.8,000.0,038.8,032.0,26.2,0000.0,0003.39,0002.42,0001.98
2023-06-04 07:50:00,SystemResetWarning,0833.3,4.99,000.00,030.4,028.8,000.0,038.8,032.0,26.3,0000.0,0003.42,0002.43,0001.97
2023-06-04 07:51:00,SystemResetWarning,0833.3,5.00,000.00,030.4,028.8,000.0,038.8,032.0,26.4,0000.0,0003.56,0002.46,0001.96
2023-06-04 07:52:00,SystemResetWarning,0833.3,5.00,000.00,030.4,028.8,000.0,038.8,032.0,26.6,0000.0,0003.62,0002.49,0001.96
2023-06-04 07:53:00,SystemResetWarning,0833.3,5.00,000.00,030.4,028.8,000.0,038.8,032.0,26.7,0000.0,0003.57,0002.44,0001.95
2023-06-04 07:54:00,SystemResetWarning,0833.2,5.01,000.00,030.4,028.8,000.0,038.8,032.0,26.8,0000.0,0003.44,0002.41,0001.94
2023-06-04 07:55:00,SystemResetWarning,0833.2,5.01,000.00,030.4,028.8,000.0,038.8,032.0,26.8,0000.0,0003.38,0002.37,0001.91
2023-06-04 07:56:00,SystemResetWarning,0833.2,4.99,000.00,030.4,028.8,000.0,038.8,032.0,27.0,0000.0,0003.39,0002.37,0001.91
2023-06-04 07:57:00,SystemResetWarning,0833.2,4.99,000.00,030.4,028.8,000.0,038.8,032.0,27.1,0000.0,0003.40,0002.39,0001.91
2023-06-04 07:58:00,SystemResetWarning,0833.2,4.99,000.00,030.4,028.8,000.0,038.8,032.0,27.1,0000.0,0003.23,0002.33,0001.90
2023-06-04 07:59:00,SystemResetWarning,0833.2,5.01,000.00,030.4,028.8,000.0,038.8,032.0,26.9,0000.0,0003.24,0002.34,0001.90
